DELTA 1 DEB, 42636

Orbit data source: Space-Track

DELTA 1 DEB, 42636 is space debris in SSO originally from a launch on Thu, 12 Jun 1975 UTC launched from the Air Force Western Test Range (AFWTR). Debris objects in space refer to the collection of defunct objects orbiting the Earth. Examples of debris include non-operational satellites, rocket bodies, and fragments generated from explosions, collisions, or faulty payload assembly.

Loading next visibility...
Identifier
42636, 1975-052LV
Orbit
SSO
Country
Flag of USUS
Related business
Manufacturer
Unknown
Mission
Spacecraft
Bus & Motor
Unknown
Mass
Unknown
Launch date (UTC)
1975-06-12 (50 years ago)
Launch vehicle
Unknown
Launch site
Air Force Western Test Range (AFWTR)
Object type
Payload
Rocket body
Debris
Shape & HBR
Unknown shape, 0.1 m
Radar Cross Section
Small (<0.1 m²)

Expand to show TLE details & history
Last TLE update: 19 hours ago

TLE from 19 hours ago
0 DELTA 1 DEB
1 42636U 75052LV  25312.30319947  .00000331  00000-0  85681-3 0  9997
2 42636  99.6809 151.5259 0131554 328.3681 212.9714 13.22115977576778
Epoch: 2025-11-08T07:16Z
TLE epoch observation values (Epoch: 2025-11-08T07:16:36.434Z)
Latitude
-0.63593°
Longitude
174.5314°
Altitude
1,263.256 km
Speed
7.184 km/s
True Right ascension
22h 05m 40s
True Declination
0° 37' 57"
Sunlit
Object was in daylight at epoch
Visualization orbit readout
Latitude
Unknown
Longitude
Unknown
Altitude
Unknown
Speed
Unknown
Apparent Right ascension
Unknown
Apparent Declination
Unknown
Sunlit
N/A
Visualization observer readout
Local Sidereal Time
22:16:19
Azimuth
Unknown
Elevation
Unknown
Doppler factor
Unknown
Orbital elements
Apogee altitude
1,273.337 km
Perigee altitude
1,074.634 km
Semi-major axis
7,552.123 km
Eccentricity
0.01316
Inclination
99.6809°
RAAN
151.5259°
Arg. of periapsis
328.3681°
True anomaly
212.16219°
Mean anomaly
212.9714°
Eccentric anomaly
212.56568°
Mean motion
3.30704 °/min
Orbital period
108.86 mins
BSTAR
0.00085681
Loading maneuver chart data...
Computing Atmospheric mass density...
Loading historical data...
Loading historical data...
Loading historical data...
Loading historical data...
Loading historical data...
Loading historical data...
Loading historical data...

Documentation

Showing up to 5 results
|